NOAA 16 DEB

Satellite information

Favourite Embed

Satellite Type and Status

DEBRISIN ORBIT

Key statistics

Satellite NOAA 16 DEB at a glance.

Uptime

9165

Days in orbit

Revolutions

≈ 14.7

Per day

Orbit

SSO

Sun Synchronous Orbit

Inclination

98.9

Latest

Satellite identification and parameters

Extended collection of information and parameters for NOAA 16 DEB.

Object identification

Identified? True

Debris? True

Object name: NOAA 16 DEB

International designator: 2000-055DL

Object number (NORAD): 41207

Object ID (CCSDS): 41207

Country: UNITED STATES OF AMERICA (US)

Current information (Y/N): Y

RCS size: SMALL

Orbital parameters

Period: 97.926 minutes

Inclination: 98.9116 deg

SMA: 7037.632 km

Apoapsis: 686.101 km

Periapsis: 632.893 km

RAAN: 173.6237 deg

Eccentricy: 0.00378031

Argument of periapsis: 282.6187 deg

Mean anomaly: 77.0791 deg

Mean motion: 14.70492906 rev/day

Mean motion (dot): 0.00024282 rev/day2

B* drag term: 0.0039566462 1/REarth

Two-line elements (TLE)

Creation date: Oct. 24, 2025, 6:33 p.m.

Reference frame: TEME

Reference center: EARTH

Epoch: Oct. 24, 2025, 2:44 a.m. UTC

TLE line 0: 0 NOAA 16 DEB

TLE line 1: 1 41207U 00055DL 25297.11430464 .00024282 00000-0 39566-2 0 9991

TLE line 2: 2 41207 98.9116 173.6237 0037803 282.6187 77.0791 14.70492906517651

Live tracking on map

Real-time ground track for satellite NOAA 16 DEB.

In-orbit conjunctions

A list of the most updated potential collisions computed for object NOAA 16 DEB.

Target Orbit TCA Probability of collision Miss distance Type
CZ-6A DEB SSO 2025-07-23 10:29:58 0.000120907 273.0 (m) DEBRIS
SL-14 R/B LEO 2025-07-07 05:53:16 0.0003011386 136.0 (m) ROCKET BODY
COSMOS 2251 DEB LEO 2025-05-05 02:10:21 0.000101397 329.0 (m) DEBRIS
COSMOS 614 LEO 2024-11-14 14:54:51 0.0001568497 134.0 (m) PAYLOAD

Associated space launch

The NOAA K, L and M POES satellites begin the fifth generation of improved environmental monitoring in support of NOAA missions. The instrument payload has significant improvements and additions/deletions. The instrument changes have effected the spacecraft subsystems and data formats.

NOAA 16 DEB was lifted into orbit during the mission ‘Titan II SLV | NOAA 16’, on board a Titan II SLV space rocket.

The launch took place on Sept. 21, 2000, 10:22 a.m. from Space Launch Complex 4W.

For more information about the launch, click the button.

Launch to space Titan II SLV | NOAA 16
Titan II SLV | NOAA 16

Agency: N/A

Status: Launch Successful

Launch date: Sept. 21, 2000, 10:22 a.m. UTC

Rocket: Titan II SLV

Launch pad: Space Launch Complex 4W

Location: Vandenberg SFB, CA, USA

...

Latest news about this satellite

There are no fresh news available about this satellite. Check back as we update our databases every day.


Newsletter sign-up

Weekly statistics, charts and insights to help you stay on top of the space industry.